Weather in Boyets Kuznetsov

Russia / Primorsky Krai     42°57′09″N   133°04′03″E
temp.,
°C
wind,
m/s
gust,
m/s
humid.,
%
clouds,
%
prec.,
mm/h
press.,
hPa
HPBL,
m
7 march, sun
sun701:00−13nne35720 0.0 1035208
04:00−14nne23750 0.0 1034100
07:00−14nne22700 0.0 103362
10:00−8nne11450 0.0 1031232
13:00−3sw35511 0.0 10291034
16:00−2sw466827 0.0 1027932
19:00−4sw2686100 0.1 1026383
22:00−6wsw119792 0.1 102721
8 march, mon
mon801:00−7nnw119560 0.0 102721
04:00−7n229131 0.0 102848
07:00−9n22850 0.0 102863
10:00−5n24590 0.0 1030427
13:00+2n24370 0.0 10291235
16:00+3nw25340 0.0 10281329
19:00−2wnw12540 0.0 102722
22:00−4w11650 0.0 102821
9 march, tue
tue901:00−5wsw11691 0.0 102721
04:00−5wsw017822 0.0 102521
07:00−3ese0184100 0.0 102321
10:00−1s1189100 0.1 102389
13:00+2sw488491 0.1 1020811
16:00+3sw487596 0.1 1016748
19:00−1wsw269138 0.0 1017253
22:00−2nw7174759 0.5 10211379
10 march, wed
wed1001:00−3nw616601 0.0 10231423
04:00−5nw413682 0.0 10251245
07:00−6nw313660 0.0 10271084
10:00−3nnw39490 0.0 1029996
13:00+2nnw36350 0.0 10291207
16:00+4nnw24320 0.0 10281293
19:00−1nw11510 0.0 102821
22:00−2nw115532 0.0 102921
11 march, thu
thu1101:00−2w115398 0.0 102922
04:00−3nw115565 0.0 102721
07:00−4n116512 0.0 102722
10:00+1nne12607 0.0 1028209
13:00+7n13440 0.0 1028899
16:00+7sw135131 0.0 1027964
19:00+2n1173100 0.0 102722
22:000nne2273100 0.0 102834